COSMOS 2491 DEB, 57561

Orbit data source: Space-Track

COSMOS 2491 DEB, 57561 is space debris in LEO originally from a launch on Wed, 25 Dec 2013 UTC launched from the Plesetsk Missile And Space Complex (PKMTR). Debris objects in space refer to the collection of defunct objects orbiting the Earth. Examples of debris include non-operational satellites, rocket bodies, and fragments generated from explosions, collisions, or faulty payload assembly.

Loading next visibility...
Identifier
57561, 2013-076AY
Orbit
LEO
Country
Flag of CISCIS
Related business
Manufacturer
TsNIIKhM
Mission
Spacecraft
Bus & Motor
Unknown
Mass
Unknown
Launch date (UTC)
2013-12-25 (12 years ago)
Launch vehicle
Unknown
Launch site
Plesetsk Missile And Space Complex (PKMTR)
Object type
Payload
Rocket body
Debris
Shape & HBR
Unknown shape, 0.1 m
Radar Cross Section
Small (<0.1 m²)

Expand to show TLE details & history
Last TLE update: 2 days ago

TLE from 2 days ago
0 COSMOS 2491 DEB
1 57561U 13076AY  25284.69276120  .00002267  00000-0  10596-1 0  9994
2 57561  82.7488 276.2268 0134531  56.9629 304.4309 12.72486917112723
Epoch: 2025-10-11T16:37Z
TLE epoch observation values (Epoch: 2025-10-11T16:37:34.567Z)
Latitude
0.00001°
Longitude
6.31218°
Altitude
1,316.579 km
Speed
7.226 km/s
True Right ascension
18h 24m 54s
True Declination
0° 00' 00"
Sunlit
Object was in daylight at epoch
Visualization orbit readout
Latitude
Unknown
Longitude
Unknown
Altitude
Unknown
Speed
Unknown
Apparent Right ascension
Unknown
Apparent Declination
Unknown
Sunlit
N/A
Visualization observer readout
Local Sidereal Time
19:04:51
Azimuth
Unknown
Elevation
Unknown
Doppler factor
Unknown
Orbital elements
Apogee altitude
1,473.35 km
Perigee altitude
1,264.9 km
Semi-major axis
7,747.262 km
Eccentricity
0.01345
Inclination
82.7488°
RAAN
276.2268°
Arg. of periapsis
56.9629°
True anomaly
303.14727°
Mean anomaly
304.4309°
Eccentric anomaly
303.7903°
Mean motion
3.18288 °/min
Orbital period
113.1 mins
BSTAR
0.010596
Loading maneuver chart data...
Computing Atmospheric mass density...
Loading historical data...
Loading historical data...
Loading historical data...
Loading historical data...
Loading historical data...
Loading historical data...
Loading historical data...

Documentation

Showing up to 5 results
|